TimeCDT,TemperatureF,Dew PointF,Humidity,Sea Level PressureIn,VisibilityMPH,Wind Direction,Wind SpeedMPH,Gust SpeedMPH,PrecipitationIn,Events,Conditions,WindDirDegrees,DateUTC
12:52 AM,28.9,23.0,78,30.45,10.0,NNW,5.8,-,N/A,,Partly Cloudy,330,2012-10-05 05:52:00
1:52 AM,28.0,23.0,81,30.45,10.0,Calm,Calm,-,N/A,,Clear,0,2012-10-05 06:52:00
2:52 AM,26.1,23.0,88,30.46,10.0,WNW,8.1,-,N/A,,Clear,300,2012-10-05 07:52:00
3:52 AM,28.9,24.1,82,30.45,10.0,WNW,9.2,-,N/A,,Overcast,300,2012-10-05 08:52:00
4:52 AM,28.0,23.0,81,30.46,10.0,North,9.2,-,N/A,,Overcast,10,2012-10-05 09:52:00
5:52 AM,26.1,21.9,84,30.46,10.0,NNW,3.5,-,N/A,,Mostly Cloudy,340,2012-10-05 10:52:00
6:52 AM,26.1,23.0,88,30.47,10.0,Calm,Calm,-,N/A,,Overcast,0,2012-10-05 11:52:00
7:52 AM,27.0,24.1,89,30.47,10.0,Calm,Calm,-,N/A,,Overcast,0,2012-10-05 12:52:00
8:52 AM,30.0,23.0,75,30.47,10.0,NNW,8.1,-,N/A,,Overcast,330,2012-10-05 13:52:00
9:52 AM,33.8,21.2,60,30.41,10.0,NNW,11.5,-,N/A,,Overcast,330,2012-10-05 14:52:00
10:52 AM,35.1,19.0,52,30.49,10.0,NNW,13.8,-,N/A,,Mostly Cloudy,340,2012-10-05 15:52:00
11:52 AM,35.6,19.4,52,30.42,10.0,North,11.5,19.6,N/A,,Mostly Cloudy,350,2012-10-05 16:52:00
12:52 PM,37.9,19.9,48,30.49,10.0,NNW,11.5,21.9,N/A,,Partly Cloudy,340,2012-10-05 17:52:00
1:52 PM,39.2,19.4,45,30.41,10.0,North,12.7,-,N/A,,Partly Cloudy,350,2012-10-05 18:52:00
2:52 PM,39.9,19.9,45,30.47,10.0,NNW,13.8,20.7,N/A,,Clear,340,2012-10-05 19:52:00
3:52 PM,41.0,19.0,41,30.45,10.0,NNW,13.8,21.9,N/A,,Clear,340,2012-10-05 20:52:00
4:52 PM,41.0,18.0,40,30.45,10.0,NNW,17.3,24.2,N/A,,Clear,340,2012-10-05 21:52:00
5:52 PM,39.0,17.1,41,30.46,10.0,North,16.1,-,N/A,,Clear,360,2012-10-05 22:52:00
6:52 PM,36.0,16.0,44,30.48,10.0,North,11.5,-,N/A,,Clear,360,2012-10-05 23:52:00
7:52 PM,30.9,18.0,59,30.50,10.0,NNW,5.8,-,N/A,,Clear,340,2012-10-06 00:52:00
8:52 PM,30.9,19.9,64,30.50,10.0,North,6.9,-,N/A,,Mostly Cloudy,360,2012-10-06 01:52:00
9:52 PM,30.9,21.0,67,30.51,10.0,North,4.6,-,N/A,,Overcast,360,2012-10-06 02:52:00
10:52 PM,30.0,21.9,72,30.50,10.0,North,3.5,-,N/A,,Overcast,350,2012-10-06 03:52:00
11:52 PM,30.0,23.0,75,30.50,10.0,Calm,Calm,-,N/A,,Overcast,0,2012-10-06 04:52:00